STARLINK-1404, 45686

Orbit data source: Space-Track

STARLINK-1404, 45686 is a payload satellite owned by SpaceX/Seattle (US) in LEO that was launched on Thu, 04 Jun 2020 UTC via an FALCON 9 launch vehicle from the Air Force Eastern Test Range (AFETR). Payload-class satellites include a variety of spacecraft equipped with specific instruments for various scientific and technological missions. These include communications satellites like Starlink; space stations such as the ISS; scientific satellites like the Hubble; Earth observation satellites from companies like Planet Labs, Umbra, and HawkEye 360; GPS; miniature CubeSats for education and research; and military/defense satellites.

Loading next visibility...
Identifier
45686, 2020-035AF
Orbit
LEO
Last TLE update
9 hours ago
Origin
Manufacturer
SpaceX/Seattle
Mission
Operational Commercial Communications
Bus & Motor
STARLINK, Unknown motor
Mass
260 kg wet, ~248 kg dry
Launch date (UTC)
2020-06-04 (5 years ago)
Launch vehicle
FALCON 9
Launch site
Air Force Eastern Test Range (AFETR)
Object type
Payload
Rocket body
Debris
Shape & HBR
Box + 1 Pan, 8.86 m
Radar Cross Section
13.562 m², Large (>1 m²)

Expand to show TLE details & history

TLE from 9 hours ago
0 STARLINK-1404
1 45686U 20035AF  25182.08153158  .00000825  00000-0  74294-4 0  9993
2 45686  53.0552 106.1320 0001568  92.6560 267.4609 15.06406999280544
Epoch: 2025-07-01T01:57Z
TLE epoch observation values (Epoch: 2025-07-01T01:57:24.328Z)
Latitude
0.00002°
Longitude
157.39854°
Altitude
548.118 km
Speed
7.589 km/s
True Right ascension
07h 04m 31s
True Declination
0° 00' 00"
Sunlit
Object was in daylight at epoch
Visualization orbit readout
Latitude
42.70246°
Longitude
-67.83995°
Altitude
550.401 km
Speed
7.593 km/s
Apparent Right ascension
13h 09m 18s
Apparent Declination
4° 52' 16"
Sunlit
Object is in daylight
Visualization observer readout
Local Sidereal Time
22:05:56
Azimuth
305.536° NW
Elevation
-28.55°
Doppler factor
1
Orbital elements
Apogee altitude
548.547 km
Perigee altitude
546.375 km
Semi-major axis
6,925.598 km
Eccentricity
0.00016
Inclination
53.0552°
RAAN
106.132°
Arg. of periapsis
92.656°
True anomaly
Unknown
Mean anomaly
267.4609°
Eccentric anomaly
Unknown
Mean motion
3.7658 °/min
Orbital period
95.6 mins
BSTAR
0.000074294
Loading maneuver chart data...
Loading SW <> Apogee altitude chart data...

STARLINK-1404 Visibility forecast

Observer location: undefined°, undefined°

Span
Click to sort rows by Start time (UTC) header in descending order
Start Az.
Max El. time (UTC)
Max El. Az.
Max El.
End time (UTC)
End Az.
7 mins2025-07-01 21:13:29.404Z208.899° SW2025-07-01 21:16:29.404Z159.444° S36.747°2025-07-01 21:20:29.404Z60.745° ENE
5 mins2025-07-01 22:54:29.404Z286.253° WNW2025-07-01 22:56:29.404Z329.022° NNW25.424°2025-07-01 22:59:29.404Z27.701° NE
4 mins2025-07-02 02:16:29.404Z347.625° N2025-07-02 02:18:29.404Z21.988° NNE15.852°2025-07-02 02:20:29.404Z52.881° ENE
6 mins2025-07-02 03:55:29.404Z322.271° NNW2025-07-02 03:58:29.404Z40.498° NE38.458°2025-07-02 04:01:29.404Z109.176° ESE
4 mins2025-07-02 05:36:29.404Z255.531° W2025-07-02 05:37:29.404Z234.943° WSW20.261°2025-07-02 05:40:29.404Z183.693° SSW
|